FW1555 Weather Reports


time (UTC)temp
F
wind
direction
speed
knots
gust
knots
rain 1hr
in
rain 24hr
in
rain mn
in
humidity
%
barometer
mb
20260906023058 70 0 0.0 0.0 0.00 0.00 0.00 80 1012.2
20260906021600 70 0 0.0 0.0 0.00 0.00 0.00 80 1012.1
20260906020101 70 0 0.0 0.0 0.00 0.00 0.00 80 1012.1
20260906014605 69 0 0.0 0.9 0.00 0.00 0.00 80 1012.0
20260906013052 69 0 0.0 0.0 0.00 0.00 0.00 82 1012.0
20260906011603 69 0 0.0 0.0 0.00 0.00 0.00 84 1011.9
20260906010053 69 0 0.0 0.0 0.00 0.00 0.00 83 1011.8
20260906004557 69 0 0.0 0.0 0.00 0.00 0.00 83 1011.6
20260906003053 69 0 0.0 0.0 0.00 0.00 0.00 82 1011.5
20260906001556 70 0 0.0 0.0 0.00 0.00 0.00 81 1011.4
20260906000100 71 0 0.0 0.0 0.00 0.00 0.00 79 1011.2
20260905234556 72 0 0.0 0.0 0.00 0.00 0.00 77 1010.9
20260905233108 72 0 0.0 0.0 0.00 0.00 0.00 75 1010.9
20260905231600 73 0 0.0 0.0 0.00 0.00 0.00 74 1010.9
20260905224608 76 0 0.0 0.0 0.00 0.00 0.00 68 1010.4
20260905223106 77 0 0.0 0.0 0.00 0.00 0.00 67 1010.6
20260905221557 77 0 0.0 0.0 0.00 0.00 0.00 67 1010.5
20260905220054 78 0 0.0 0.9 0.00 0.00 0.00 64 1010.4
20260905214549 78 0 0.0 2.6 0.00 0.00 0.00 63 1010.2
20260905213100 79 0 0.0 1.7 0.00 0.00 0.00 60 1010.2
20260905211558 77 0 0.0 0.0 0.00 0.00 0.00 60 1010.2
20260905210055 79 0 0.0 3.5 0.00 0.00 0.00 56 1010.3
20260905204550 81 0 0.0 1.7 0.00 0.00 0.00 59 1010.1
20260905203101 80 0 0.0 1.7 0.00 0.00 0.00 58 1010.1
20260905201608 80 0 0.0 0.9 0.00 0.00 0.00 58 1010.0
20260905200052 80 32 0.0 1.7 0.00 0.00 0.00 56 1010.1
20260905194600 80 0 0.0 2.6 0.00 0.00 0.00 55 1010.1
20260905193057 80 0 0.0 2.6 0.00 0.00 0.00 59 1010.0
20260905191557 79 0 0.0 5.2 0.00 0.00 0.00 59 1010.2
20260905190110 78 0 0.0 3.5 0.00 0.00 0.00 61 1010.2
20260905184622 78 0 0.0 3.5 0.00 0.00 0.00 61 1010.5
20260905183059 78 304 0.0 2.6 0.00 0.00 0.00 60 1010.4
20260905181555 79 0 0.0 4.3 0.00 0.00 0.00 62 1010.5
20260905180053 78 0 0.0 5.2 0.00 0.00 0.00 60 1010.7
20260905174556 78 349 0.0 4.3 0.00 0.00 0.00 62 1010.5
20260905173058 78 0 0.0 4.3 0.00 0.00 0.00 61 1010.5
20260905171557 78 0 0.9 4.3 0.00 0.00 0.00 61 1010.7
20260905170120 78 0 0.0 4.3 0.00 0.00 0.00 63 1010.7
20260905164602 78 0 0.0 2.6 0.00 0.00 0.00 67 1010.8
20260905163102 77 0 0.0 4.3 0.00 0.00 0.00 66 1010.9
20260905161557 77 0 0.0 2.6 0.00 0.00 0.00 68 1010.8
20260905160052 77 0 0.0 4.3 0.00 0.00 0.00 66 1010.8
20260905154553 77 0 0.0 3.5 0.00 0.00 0.00 67 1010.7
20260905153058 76 0 0.0 2.6 0.00 0.00 0.00 69 1010.9
20260905151555 76 0 0.0 3.5 0.00 0.00 0.00 67 1010.8
20260905150050 75 0 0.0 2.6 0.00 0.00 0.00 72 1010.8
20260905144559 74 278 0.0 2.6 0.00 0.00 0.00 73 1010.8
20260905143100 75 0 0.0 2.6 0.00 0.00 0.00 73 1010.7
20260905141629 74 0 0.0 3.5 0.00 0.00 0.00 73 1010.7
20260905140101 74 0 0.0 1.7 0.00 0.00 0.00 74 1010.6
20260905134600 74 0 0.0 1.7 0.00 0.00 0.00 74 1010.6
20260905133057 74 0 0.0 1.7 0.00 0.00 0.00 75 1010.7
20260905131619 73 0 0.0 2.6 0.00 0.00 0.00 76 1010.7
20260905130100 72 0 0.0 0.0 0.00 0.00 0.00 78 1010.8
20260905124601 72 0 0.0 0.0 0.00 0.00 0.00 80 1010.9
20260905123108 70 0 0.0 0.0 0.00 0.00 0.00 85 1011.1
20260905121603 66 0 0.0 0.0 0.00 0.00 0.00 91 1011.1
20260905120100 64 0 0.0 0.0 0.00 0.00 0.00 92 1011.1
20260905114557 63 0 0.0 0.0 0.00 0.00 0.00 94 1011.1
20260905113101 62 0 0.0 0.0 0.00 0.00 0.00 94 1010.9
20260905111558 62 0 0.0 0.0 0.00 0.00 0.00 94 1010.5
20260905110049 62 0 0.0 0.0 0.00 0.00 0.00 93 1010.3
20260905104558 62 0 0.0 0.0 0.00 0.00 0.00 91 1010.1
20260905103055 63 0 0.0 0.0 0.00 0.00 0.00 91 1010.2
20260905101608 63 0 0.0 0.0 0.00 0.00 0.00 91 1010.1
20260905100050 63 0 0.0 0.0 0.00 0.00 0.00 90 1010.0
20260905094550 64 0 0.0 0.0 0.00 0.00 0.00 89 1009.9
20260905093100 64 0 0.0 0.0 0.00 0.00 0.00 88 1009.7
20260905091626 65 0 0.0 0.0 0.00 0.00 0.00 87 1009.7
20260905090048 66 0 0.0 0.0 0.00 0.00 0.00 85 1009.8
20260905084616 66 0 0.0 0.0 0.00 0.00 0.00 84 1009.6
20260905083101 67 0 0.0 0.0 0.00 0.00 0.00 83 1009.6
20260905081600 68 0 0.0 0.0 0.00 0.00 0.00 83 1009.6
20260905080100 68 0 0.0 0.0 0.00 0.00 0.00 83 1009.7
20260905074559 69 0 0.0 0.0 0.00 0.00 0.00 82 1009.7
20260905073053 69 0 0.0 0.0 0.00 0.00 0.00 81 1009.6
20260905071604 69 0 0.0 0.0 0.00 0.00 0.00 80 1009.5
20260905070113 70 0 0.0 0.0 0.00 0.00 0.00 79 1009.4
20260905064557 70 0 0.0 0.0 0.00 0.00 0.00 79 1009.7
20260905063055 70 0 0.0 0.0 0.00 0.00 0.00 80 1009.8
20260905061554 70 0 0.0 0.0 0.00 0.00 0.00 80 1009.9
20260905060101 70 0 0.0 0.0 0.00 0.00 0.00 80 1009.9
20260905054600 70 0 0.0 0.0 0.00 0.00 0.00 82 1010.0
20260905053101 70 0 0.0 0.0 0.00 0.00 0.00 82 1010.2
20260905051551 70 0 0.0 0.0 0.00 0.00 0.00 82 1010.6
20260905050050 70 0 0.0 0.0 0.00 0.00 0.00 82 1010.6
20260905044559 70 0 0.0 0.0 0.00 0.00 0.00 83 1010.6
20260905043056 70 0 0.0 0.0 0.00 0.00 0.00 81 1010.8
20260905041550 71 0 0.0 0.0 0.00 0.00 0.00 81 1010.8
20260905040048 71 0 0.0 0.0 0.00 0.00 0.00 81 1010.7
20260905034554 71 0 0.0 0.0 0.00 0.00 0.00 80 1010.8
20260905033055 72 0 0.0 0.0 0.00 0.00 0.00 79 1010.6
20260905031556 72 0 0.0 0.0 0.00 0.00 0.00 79 1010.7
20260905030104 72 0 0.0 0.0 0.00 0.00 0.00 79 1010.9
20260905024630 71 0 0.0 0.0 0.00 0.00 0.00 80 1010.8